Cut Bank, MT

10:51 PM MDT on May 29, 2017 (GMT -0600)
Cut Bank Municipal

Weather History for KCTB - May, 2014

Change the Weather History Date:

Sunday, May 18, 2014

  Actual Average Record
Temperature  
Mean Temperature 53 °F 51 °F  
Max Temperature 65 °F 63 °F 87 °F (2006)
Min Temperature 41 °F 38 °F 13 °F (1909)
Degree Days  
Heating Degree Days 12 14  
Month to date heating degree days 351 306  
Since 1 July heating degree days 8486 8126  
Cooling Degree Days 0 0  
Month to date cooling degree days 0 0  
Year to date cooling degree days 0 0  
Growing Degree Days 3 (Base 50)    
Moisture  
Dew Point 35 °F    
Average Humidity 59    
Maximum Humidity 89    
Minimum Humidity 28    
Precipitation  
Precipitation 0.00 in 0.07 in 1.81 in (1938)
Month to date precipitation 0.52 0.90  
Year to date precipitation 4.02 2.59  
Snow  
Snow 0.00 in - - ()
Snow Depth 0.00 in    
Sea Level Pressure  
Sea Level Pressure 29.66 in    
Wind  
Wind Speed 12 mph (WSW)    
Max Wind Speed 22 mph    
Max Gust Speed 26 mph    
Visibility 10 miles    
Events      
T = Trace of Precipitation, MM = Missing Value Source: NWS Daily Summary

Daily Weather History Graph

Daily Weather History Graph

Search for Another Location

Airport or City:

Trip Planner

Search our weather history database for the weather conditions in past years. The results will help you decide how hot, cold, wet, or windy it might be!

Date:

Astronomy

May. 18, 2014 Rise Set
Actual Time 5:44 AM MDT 9:07 PM MDT
Civil Twilight 5:06 AM MDT 9:46 PM MDT
Nautical Twilight 4:15 AM MDT 10:37 PM MDT
Astronomical Twilight 3:09 AM MDT 11:44 PM MDT
Moon 12:07 AM MDT (5/18) 9:41 AM MDT (5/18)
Length of Visible Light 16h 39m
Length of Day
15h 23m
Waning Gibbous, 80% of the Moon is Illuminated
May 18
Waning Gibbous
May 21
Last Quarter
May 28
New
Jun 5
First Quarter
Jun 12
Full

Hourly Weather History & Observations

Time (MDT) Temp. Windchill Dew Point Humidity Pressure Visibility Wind Dir Wind Speed Gust Speed Precip Events Conditions
12:10 AM 46.9 °F - 44.1 °F 90% 29.77 in 10.0 mi NNW 5.8 mph - N/A   Mostly Cloudy
12:56 AM 46.0 °F - 42.1 °F 86% 29.74 in 10.0 mi Calm Calm - N/A   Clear
1:56 AM 43.0 °F 40.3 °F 39.9 °F 89% 29.73 in 10.0 mi WNW 4.6 mph - N/A   Clear
2:56 AM 45.0 °F - 39.9 °F 82% 29.70 in 10.0 mi Calm Calm - N/A   Clear
3:56 AM 44.1 °F 40.1 °F 35.1 °F 71% 29.69 in 10.0 mi SW 6.9 mph - N/A   Clear
4:56 AM 42.1 °F 36.6 °F 34.0 °F 73% 29.69 in 10.0 mi WSW 9.2 mph - N/A   Clear
5:56 AM 43.0 °F 36.8 °F 35.1 °F 74% 29.68 in 10.0 mi WSW 11.5 mph - N/A   Clear
6:56 AM 46.0 °F 41.0 °F 37.0 °F 71% 29.68 in 10.0 mi WSW 10.4 mph - N/A   Clear
7:56 AM 52.0 °F - 39.9 °F 63% 29.67 in 10.0 mi WSW 15.0 mph - N/A   Clear
8:56 AM 55.9 °F - 37.0 °F 49% 29.65 in 10.0 mi WSW 18.4 mph - N/A   Clear
9:56 AM 55.9 °F - 36.0 °F 47% 29.66 in 10.0 mi WSW 18.4 mph - N/A   Clear
10:56 AM 57.9 °F - 34.0 °F 41% 29.64 in 10.0 mi WSW 12.7 mph - N/A   Clear
11:56 AM 59.0 °F - 34.0 °F 39% 29.64 in 10.0 mi SW 12.7 mph - N/A   Clear
12:56 PM 59.0 °F - 33.1 °F 38% 29.63 in 10.0 mi WSW 16.1 mph - N/A   Clear
1:56 PM 59.0 °F - 32.0 °F 36% 29.64 in 10.0 mi WSW 13.8 mph - N/A   Clear
2:56 PM 64.0 °F - 30.9 °F 29% 29.61 in 10.0 mi SW 8.1 mph - N/A   Clear
3:56 PM 63.0 °F - 30.9 °F 30% 29.60 in 10.0 mi West 9.2 mph - N/A   Clear
4:56 PM 61.0 °F - 30.0 °F 31% 29.61 in 10.0 mi WSW 8.1 mph - N/A   Clear
5:56 PM 63.0 °F - 30.9 °F 30% 29.60 in 10.0 mi West 10.4 mph - N/A   Scattered Clouds
6:56 PM 59.0 °F - 33.1 °F 38% 29.61 in 10.0 mi SSW 10.4 mph - N/A   Partly Cloudy
7:56 PM 59.0 °F - 32.0 °F 36% 29.61 in 10.0 mi WSW 17.3 mph - N/A   Scattered Clouds
8:56 PM 53.1 °F - 35.1 °F 50% 29.62 in 10.0 mi WSW 13.8 mph - N/A   Clear
9:56 PM 50.0 °F - 36.0 °F 59% 29.65 in 10.0 mi WSW 13.8 mph - N/A   Mostly Cloudy
10:56 PM 48.9 °F - 35.1 °F 59% 29.67 in 10.0 mi WNW 15.0 mph - N/A   Overcast
11:56 PM 48.2 °F - 39.2 °F 71% 29.71 in 10.0 mi NW 13.8 mph - N/A   Overcast